GFSGL_prec_cloud_336.txt.gz
Cloud_Cover
100 93 100 100 100 100 100 100 100 100 100 100 100 100 100 100 100 100 100 100 100 100 100 100 100 100 58 89 100 92 100 100 100 100 100 100 100 98 2 2 2 5 12
57 100 100 100 100 100 100 100 100 100 100 100 100 100 100 100 100 100 100 100 100 100 100 100 100 100 100 100 100 100 100 100 100 100 97 100 97 0 2 0 0 0 2
100 100 100 100 100 100 100 100 100 100 100 100 100 100 100 100 100 100 100 100 100 100 100 100 100 100 100 100 100 100 100 100 100 100 83 21 1 0 0 0 0 0 0
100 100 100 100 100 100 100 100 100 100 100 100 100 100 100 100 100 100 100 100 100 100 100 100 100 100 100 100 100 100 100 100 69 4 3 0 0 0 0 0 8 2 4
100 100 100 100 100 100 100 100 100 100 100 100 100 100 100 100 100 100 100 100 100 100 100 100 100 97 89 100 100 38 22 3 1 4 3 3 2 50 24 4 1 0 0
100 100 100 100 100 100 100 100 100 100 100 100 100 100 100 100 100 100 100 100 100 100 100 100 79 55 50 44 27 4 0 0 0 0 4 10 0 0 2 4 1 2 1
100 100 100 100 100 100 100 100 100 100 100 100 100 100 100 100 100 90 15 5 5 2 1 8 61 4 0 2 0 0 0 0 0 0 0 0 6 4 0 0 0 0 0
100 100 100 100 100 100 97 100 93 37 14 47 100 96 100 100 100 100 100 100 100 100 100 100 46 0 0 0 0 0 0 0 0 0 0 0 0 0 0 0 0 0 29
100 100 100 100 95 100 100 88 10 5 3 5 18 88 100 100 100 100 41 5 6 10 1 0 0 0 0 0 0 0 0 0 0 0 0 0 0 0 0 0 2 27 72
100 100 73 100 100 100 100 100 100 100 100 100 100 100 100 100 12 5 15 7 36 15 1 0 0 0 0 0 0 0 0 0 0 0 0 0 0 2 4 5 5 5 55
100 100 100 100 100 100 100 100 100 100 100 100 100 100 100 100 64 3 0 0 10 10 21 38 36 0 0 0 0 0 0 0 0 0 1 28 97 100 100 100 40 13 45
100 100 100 100 100 100 100 100 100 100 100 100 88 63 18 4 2 1 0 59 0 1 16 25 25 0 0 0 42 0 0 25 0 4 4 14 58 17 43 26 11 15 28
100 100 78 34 11 6 5 14 17 7 55 14 10 1 2 1 0 0 0 0 0 3 0 0 0 0 0 65 4 0 50 5 5 5 5 5 6 50 46 38 27 40 51
100 92 76 5 4 5 12 61 24 4 0 1 15 12 17 21 25 12 0 0 41 26 0 0 0 0 0 12 23 32 5 5 5 22 19 0 8 37 48 45 49 71 90
5 5 26 23 5 17 4 5 1 1 1 10 21 33 27 40 67 5 5 1 7 24 0 0 0 5 5 5 12 5 12 10 18 42 44 80 98 55 75 100 100 49 89
5 5 5 5 18 10 18 6 5 5 5 5 5 42 94 95 31 11 49 4 5 5 17 5 5 5 5 11 5 5 12 75 82 98 100 99 75 22 32 52 25 7 32
5 5 5 5 16 68 99 97 49 43 16 38 5 5 28 54 72 99 100 14 18 51 5 5 5 5 5 8 35 28 8 5 5 18 0 0 0 0 0 0 5 20 41
20 100 89 19 74 27 76 100 56 18 5 5 61 26 24 22 23 7 4 92 96 36 51 5 5 5 28 67 40 5 5 5 5 4 1 5 5 1 1 12 39 21 38
100 100 93 100 35 51 45 100 82 82 18 9 17 49 33 4 0 4 19 100 100 100 81 10 5 11 5 5 5 5 5 5 7 5 5 5 5 2 2 64 69 8 47
100 100 100 100 100 100 80 93 80 51 100 29 38 53 100 17 85 1 1 6 100 100 62 14 44 60 44 5 5 5 5 5 5 5 5 5 5 13 34 10 34 84 38
100 100 100 100 100 100 100 100 100 40 100 100 55 50 26 99 76 100 14 5 91 100 75 62 6 47 7 5 5 5 5 12 5 5 5 5 6 7 27 99 61 25 68
100 100 100 100 100 100 100 100 100 97 97 100 38 26 15 100 74 9 49 5 15 100 52 11 8 27 26 5 7 20 49 49 15 5 10 5 7 50 90 97 96 78 63
100 100 100 100 100 100 38 62 54 52 100 78 17 12 17 100 100 100 96 90 100 75 9 6 31 10 75 34 31 72 74 62 6 45 5 8 49 42 20 94 99 100 100
100 100 100 100 97 80 82 47 80 62 100 100 55 71 61 96 71 81 96 100 100 83 38 5 5 16 29 76 13 5 7 7 5 5 63 21 97 72 99 100 97 85 92
83 57 44 100 95 40 20 48 100 100 100 100 90 86 84 100 100 100 100 100 100 64 30 5 9 9 5 6 48 40 77 17 5 6 30 68 100 100 100 100 88 100 100
87 100 100 31 5 5 81 100 100 100 100 70 100 78 53 63 99 97 98 65 18 17 24 5 5 15 17 83 52 8 5 21 84 95 96 100 100 100 100 100 100 100 100

GFSGL_prec_cloud_339.txt.gz
Cloud_Cover
80 48 100 100 100 100 100 100 100 100 100 100 100 100 100 100 100 100 100 100 100 100 100 100 100 100 100 100 100 100 100 100 100 100 100 99 100 100 100 100 91 100 68
93 49 65 100 100 100 100 100 100 100 100 100 100 100 100 100 100 100 100 100 100 100 100 100 100 100 100 100 100 100 100 100 100 100 17 72 100 100 100 100 99 100 100
100 100 68 100 100 89 100 100 100 100 100 100 100 100 100 100 100 100 100 100 100 100 100 100 100 100 100 100 100 100 100 100 78 100 100 100 100 100 100 82 1 1 5
83 93 100 100 100 96 100 100 100 100 100 100 100 100 100 100 100 95 92 97 100 100 100 100 100 100 100 100 100 100 100 100 84 44 46 23 13 7 13 21 65 97 3
100 100 100 100 100 100 100 100 100 100 100 100 100 100 100 100 100 94 77 94 98 100 41 75 100 100 100 100 100 100 100 100 100 100 13 7 77 68 71 58 1 67 30
100 100 100 100 100 100 100 100 100 100 100 100 100 100 100 100 100 100 100 100 100 99 15 5 83 53 17 5 5 65 5 5 5 0 0 19 90 6 9 28 27 0 0
100 100 100 100 100 100 100 100 100 100 100 100 100 100 92 100 90 62 97 78 63 100 100 83 33 33 22 38 41 98 63 72 90 100 100 55 1 3 1 0 0 0 0
100 100 100 100 100 100 100 100 100 100 100 100 100 100 100 69 100 100 100 100 100 100 100 100 100 100 100 100 100 58 55 19 0 0 0 0 0 0 0 0 0 0 0
100 94 100 100 100 100 100 100 100 100 96 100 100 100 100 100 100 100 100 100 100 100 100 27 3 0 6 1 0 0 0 0 0 0 0 0 0 0 0 0 0 0 0
100 100 100 100 100 100 75 100 100 89 100 61 9 23 8 38 51 86 55 94 24 2 5 2 0 0 0 0 0 0 0 0 0 0 0 0 0 0 2 4 24 91 18
92 100 99 100 100 100 100 94 41 86 83 90 38 65 39 65 98 94 79 48 15 6 1 10 2 5 0 0 0 0 0 0 0 0 5 30 32 42 51 14 6 0 1
100 100 100 100 96 91 100 100 100 100 100 100 100 100 100 100 98 78 55 70 0 0 3 1 100 100 31 0 41 0 0 0 0 0 1 1 38 100 14 3 41 62 69
38 57 98 100 76 61 18 22 25 23 5 5 5 7 5 5 2 0 0 0 1 5 0 2 6 7 0 65 0 0 24 0 0 0 0 0 42 72 21 35 78 100 49
5 55 100 100 98 84 6 5 4 3 12 1 75 5 5 3 4 0 0 2 95 100 5 2 0 0 0 0 18 0 0 0 0 0 21 25 92 100 100 100 98 65 17
5 0 1 5 5 6 0 9 22 10 32 6 6 7 11 10 22 32 36 41 100 87 7 5 0 11 0 35 28 54 100 99 98 77 17 54 77 88 96 100 73 54 2
5 5 5 8 4 2 34 13 5 5 5 5 5 36 5 7 5 11 50 30 99 90 36 5 74 49 60 89 100 98 100 98 20 21 43 25 23 22 4 1 10 5 5
5 5 5 5 22 39 8 99 99 95 6 5 6 38 40 5 5 18 45 7 28 68 6 3 3 6 58 46 100 100 88 88 6 5 31 6 5 5 5 5 5 5 5
98 100 33 11 27 86 65 30 75 100 100 100 23 24 7 47 5 4 0 73 7 28 0 5 5 28 45 23 100 94 63 5 5 5 5 5 5 5 5 4 5 10 26
100 95 100 100 100 100 100 100 88 100 100 100 100 98 34 5 0 0 12 2 0 1 5 75 100 100 94 6 87 83 7 18 5 5 5 5 5 5 5 5 5 11 17
60 32 74 27 88 46 66 60 100 100 100 100 42 97 70 5 9 1 4 1 15 60 87 6 97 100 98 98 85 100 97 33 5 5 5 5 5 5 5 7 26 27 29
5 5 6 5 82 99 100 100 100 91 63 28 64 99 28 7 98 9 100 6 18 10 21 2 0 100 100 100 72 100 100 80 7 5 5 5 5 5 5 6 38 60 100
75 87 100 97 59 86 100 100 100 100 97 52 100 100 100 72 92 5 5 50 17 21 5 41 16 56 100 100 84 43 65 85 19 5 9 6 19 5 23 45 99 100 100
64 65 56 81 96 50 87 99 100 76 67 82 54 40 100 72 100 20 3 51 29 84 99 86 46 96 94 68 84 100 100 98 12 44 53 10 7 30 56 86 95 100 100
96 70 99 98 96 100 54 54 100 84 11 100 100 100 84 100 100 94 32 100 100 54 100 99 100 100 70 53 93 100 100 100 22 19 18 44 39 41 91 97 97 100 100
100 100 98 100 100 93 98 73 9 8 70 100 98 32 99 41 9 23 77 6 38 16 1 8 99 100 32 18 32 5 85 87 99 80 28 51 100 100 100 100 100 100 100
99 87 100 100 27 6 5 80 64 16 1 3 1 20 35 24 99 96 24 4 34 80 91 73 10 61 5 10 14 100 78 96 100 100 100 100 100 100 100 100 100 100 100

GFSGL_prec_cloud_342.txt.gz
Cloud_Cover
1 51 78 84 55 100 100 100 100 100 100 100 100 100 100 100 100 100 98 92 99 95 100 100 100 100 100 94 97 100 87 97 94 96 100 100 100 100 100 100 100 100 100
39 59 90 18 28 82 100 100 100 100 100 100 100 100 100 100 100 100 100 100 100 88 84 100 100 100 100 100 100 100 100 100 100 100 100 100 100 100 100 100 35 98 96
43 74 39 50 47 100 55 99 100 100 100 100 100 100 100 100 100 100 100 100 100 100 100 98 100 100 100 100 100 100 100 100 100 100 57 100 88 98 100 100 100 83 100
100 99 79 100 92 59 60 80 100 100 100 100 100 100 100 100 100 100 100 100 99 100 100 100 100 100 100 100 99 100 100 100 100 100 100 100 100 100 100 100 92 78 71
100 100 100 100 100 88 100 86 100 100 100 100 100 100 100 100 100 100 100 100 100 100 100 100 66 100 100 83 96 51 4 16 26 29 72 77 88 87 100 47 20 1 90
100 100 100 100 100 100 100 100 100 100 100 100 100 100 100 98 100 100 77 100 74 98 28 47 5 21 5 54 100 100 99 27 5 6 7 41 97 100 100 99 99 58 0
100 100 100 100 100 100 100 100 100 100 100 100 100 100 100 56 68 100 100 66 54 41 35 60 99 100 100 87 96 72 91 78 84 100 22 44 74 3 0 0 0 0 0
100 100 100 100 100 100 100 100 100 100 100 100 100 100 100 100 100 50 97 100 100 100 77 51 20 9 6 13 22 5 2 5 9 5 21 0 0 0 0 0 0 0 0
100 100 100 100 100 100 100 99 83 100 100 100 100 100 100 100 97 5 10 84 100 100 100 100 100 45 84 66 13 5 7 9 0 0 0 0 0 0 0 0 0 0 0
100 86 73 88 100 100 100 100 73 100 93 74 87 100 100 100 100 100 100 100 100 100 100 100 100 95 5 1 0 0 0 0 0 0 0 0 0 0 0 0 0 0 0
93 70 25 93 100 95 86 43 100 100 69 25 24 54 46 33 58 69 58 32 21 11 39 100 64 5 3 1 0 0 0 0 0 0 0 0 0 0 0 21 100 2 0
60 41 68 98 93 89 99 96 100 59 99 100 97 98 100 100 97 65 44 22 15 9 6 95 88 100 93 84 4 0 0 0 0 0 0 0 0 0 0 73 100 45 2
2 1 4 5 35 18 80 96 75 44 73 88 39 10 7 5 5 5 5 5 4 1 0 0 0 17 98 100 1 0 0 0 0 0 0 0 0 0 86 100 99 100 88
2 5 1 0 22 69 95 91 94 44 5 5 4 1 32 100 0 0 0 0 0 0 0 0 3 5 5 10 6 5 4 0 0 0 0 0 1 0 0 1 100 100 100
5 5 5 2 0 4 5 5 5 3 6 59 100 18 59 79 98 74 24 2 4 4 0 5 5 38 100 100 100 100 10 18 71 54 56 5 5 5 0 0 0 0 49
74 5 5 5 0 0 2 3 6 11 12 0 12 1 5 33 46 85 100 85 8 5 4 5 17 7 82 89 100 65 35 20 65 63 5 2 3 0 0 0 22 0 0
98 35 5 1 94 91 97 23 5 5 5 5 5 21 97 100 100 100 67 16 24 75 0 3 5 5 28 44 15 5 2 48 27 2 0 1 4 5 1 0 0 0 0
44 5 7 21 73 96 100 100 87 100 100 100 98 79 99 39 57 100 60 57 10 30 1 0 0 0 5 2 5 4 7 85 92 42 4 5 4 5 2 0 0 1 4
96 5 4 14 31 83 91 100 95 100 93 100 89 100 100 42 10 14 92 24 5 5 3 48 2 4 2 3 6 75 90 100 100 100 5 32 1 5 5 5 5 5 5
57 9 32 11 14 5 5 12 55 78 100 65 100 96 83 18 77 86 85 25 5 4 89 70 36 0 2 6 100 100 100 97 99 53 64 23 5 5 5 5 5 2 5
20 4 3 0 5 5 5 5 92 61 5 73 5 40 100 100 100 87 92 97 4 5 3 0 5 0 4 5 0 1 50 100 100 98 5 5 5 5 5 5 5 5 5
5 11 17 6 88 83 85 43 34 75 47 100 64 97 48 97 50 17 53 1 4 5 1 0 0 37 41 100 100 100 100 100 100 6 5 5 0 2 2 5 5 5 5
74 19 27 98 77 100 92 81 23 7 74 18 3 45 100 100 100 100 76 2 14 6 39 6 8 100 100 100 100 100 100 100 24 96 68 14 17 2 3 12 5 5 12
29 10 61 64 34 100 99 33 6 26 3 2 4 16 18 60 100 99 94 92 100 66 25 100 26 58 100 100 100 100 100 100 100 30 12 54 86 90 57 98 97 61 62
10 13 55 6 28 83 100 100 83 100 31 100 4 20 12 0 1 2 12 70 98 38 100 99 67 24 35 100 100 100 100 100 39 94 100 100 99 100 100 100 100 97 81
49 59 51 44 96 84 100 77 5 28 21 84 85 8 1 20 57 66 100 41 90 52 76 69 100 95 96 100 100 100 100 100 100 100 100 100 100 100 100 100 100 100 100

GFSGL_prec_cloud_345.txt.gz
Cloud_Cover
68 96 63 56 91 100 14 36 36 94 100 100 100 95 70 96 100 100 100 100 97 56 26 59 98 100 97 96 100 100 100 91 100 100 94 7 32 97 12 5 77 100 100
100 91 98 100 100 100 16 96 29 19 100 100 100 100 59 21 94 100 100 100 83 79 70 52 48 48 84 99 100 100 100 98 100 100 100 100 99 99 100 100 100 100 100
51 73 100 100 100 100 92 99 78 2 10 99 100 100 100 13 70 100 100 100 99 100 40 90 54 100 100 71 98 100 100 96 92 100 100 100 100 100 100 100 31 27 42
32 50 92 100 84 100 100 100 100 84 34 6 100 100 100 100 100 98 100 100 100 93 29 58 88 91 95 100 100 100 100 100 100 100 100 100 100 94 100 86 42 5 10
88 80 78 71 100 100 100 100 100 99 100 85 70 53 87 100 100 100 100 100 100 100 82 8 4 54 77 74 100 100 100 100 100 100 100 91 80 83 76 93 50 100 36
78 100 61 96 100 100 100 100 100 100 100 100 100 100 69 100 99 100 100 100 100 100 100 98 26 99 66 17 5 92 24 2 1 12 20 12 91 100 79 69 63 2 0
100 100 100 100 100 100 100 100 100 100 100 100 100 100 84 77 60 65 88 100 96 97 100 100 100 100 100 99 100 87 67 48 8 5 6 24 82 17 0 1 2 2 1
100 100 100 100 100 100 100 100 100 100 100 100 100 100 100 97 75 100 98 84 100 72 49 98 100 100 100 100 6 64 92 75 100 63 44 66 90 23 18 0 0 0 0
99 65 100 100 100 100 100 100 100 100 100 100 100 100 75 100 100 99 89 100 94 15 13 5 5 16 22 78 88 9 6 45 5 3 2 12 35 0 0 0 0 0 0
8 81 80 100 100 100 100 95 57 88 92 96 100 100 92 41 14 58 100 100 100 100 100 100 100 100 100 100 100 64 93 40 3 0 0 0 0 0 0 0 0 0 11
0 98 96 100 100 100 100 99 54 40 100 100 38 6 73 20 73 78 50 89 71 99 100 89 98 100 100 86 23 10 5 5 4 0 0 0 0 0 0 0 0 3 66
2 0 0 5 2 20 69 38 93 100 100 13 25 26 88 74 91 70 90 100 100 100 100 100 96 77 56 66 62 6 5 5 0 3 0 0 0 0 0 0 0 0 27
98 7 5 5 70 38 92 9 47 100 14 5 45 71 34 10 2 4 5 10 32 32 35 13 9 3 97 100 98 39 41 11 20 24 5 2 0 0 0 0 0 2 100
99 5 11 7 7 0 3 0 1 0 1 4 4 4 0 0 0 0 4 5 5 1 0 0 0 0 76 100 100 11 98 100 100 100 66 6 1 0 0 0 0 3 0
21 32 84 78 50 64 3 1 0 0 0 0 0 1 11 4 1 3 5 5 5 5 5 5 5 5 1 0 15 4 54 99 100 100 96 5 10 0 0 3 5 5 5
17 100 100 100 100 74 9 5 5 2 4 5 20 100 100 79 5 3 5 26 74 84 71 5 5 1 0 0 1 5 5 5 16 65 100 58 92 5 5 5 5 5 5
100 100 100 100 100 97 67 44 16 7 5 16 5 5 5 74 42 58 56 34 16 45 6 5 5 5 5 5 1 3 72 27 4 5 12 38 69 6 5 5 5 5 8
99 100 96 95 99 55 8 58 80 97 39 21 76 24 67 83 45 40 15 100 38 49 10 5 5 5 5 5 21 5 3 2 1 0 9 100 100 100 100 96 12 5 5
100 91 13 12 5 4 18 5 33 0 0 0 9 14 5 42 94 26 25 42 100 87 49 100 66 48 5 4 25 100 100 81 7 10 100 100 100 100 100 9 50 39 5
73 5 5 1 53 8 0 0 16 6 0 5 5 27 5 5 17 9 11 100 90 98 100 41 18 4 4 0 2 55 27 14 5 5 100 100 100 100 99 100 100 65 5
100 100 34 5 5 0 0 5 0 4 5 64 67 3 4 75 99 97 84 76 100 100 28 5 4 5 1 3 5 0 5 7 15 99 84 93 52 100 100 100 98 32 23
100 100 89 9 48 8 7 80 82 3 5 44 32 5 12 5 4 4 16 20 91 73 5 1 3 1 0 4 92 7 100 100 100 95 100 59 76 100 100 89 89 8 24
100 100 100 96 74 98 13 61 78 6 5 5 4 9 62 17 0 4 5 10 76 18 100 37 2 1 3 12 70 15 100 100 100 100 100 100 100 100 88 96 85 100 74
100 100 100 100 93 100 80 12 14 50 98 100 49 80 88 64 38 36 3 5 55 4 1 2 19 94 5 55 98 100 100 100 95 100 100 100 100 100 100 100 100 100 100
100 99 33 38 88 77 8 29 49 82 81 99 100 54 11 83 63 33 9 5 5 1 22 15 6 83 6 11 12 96 100 100 100 99 100 100 100 100 100 100 100 100 100
33 60 44 12 5 49 5 18 24 50 35 88 21 5 5 56 76 39 8 3 3 12 10 14 60 94 48 76 78 35 100 100 100 100 100 100 100 100 100 100 100 100 100